[[{"header":{"parameterUnit":"m.s-1","parameterCategory":1,"la1":30.2992,"la2":30.254,"lo1":-89.0895,"lo2":-89.0443,"dy":0.0025,"dx":0.0025,"nx":19,"ny":19,"refTime":"2026-03-07T09:00:00:Z","depth":0,"parameterNumber":2,"parameterNumberName":"U-component_of_WINDS"},"data":[0,0,0,-4.0512,-4.0515,-4.0649,-4.065,-4.0824,-4.0826,0,0,0,0,0,0,0,0,0,0,0,-4.0472,-4.0473,-4.0511,-4.0515,-4.0649,-4.065,-4.0824,-4.0826,0,0,0,0,0,0,0,0,0,0,0,-4.0472,-4.0473,-4.0475,-4.0515,-4.0649,-4.065,-4.0824,-4.0721,0,0,0,0,0,0,0,0,0,0,-4.059,-4.0554,-4.0473,-4.0475,-4.0516,-4.0649,-4.065,-4.0717,-4.0728,-4.0764,0,-4.0796,0,-4.0814,-4.0838,-4.0838,0,0,0,-4.0514,-4.0545,-4.0581,-4.0475,-4.0517,-4.0649,-4.0588,-4.0723,-4.0736,-4.0779,-4.0798,-4.0805,-4.0817,-4.0839,-4.084,-4.1049,-4.105,0,0,-4.0507,-4.0497,-4.0572,-4.0589,-4.0568,-4.0584,-4.0593,-4.0731,-4.0751,-4.0799,-4.0809,-4.082,-4.084,-4.0841,-4.1048,-4.1049,0,0,0,-4.0486,-4.0492,-4.0524,-4.0582,-4.0606,-4.0588,-4.0598,-4.0745,-4.0756,-4.0811,-4.0822,-4.0841,-4.0843,-4.1047,-4.1049,-4.1086,0,0,0,-4.0481,-4.0479,-4.0521,-4.0516,-4.0603,-4.0677,-4.0609,-4.0747,-4.0763,-4.0821,-4.0841,-4.0845,-4.1046,-4.1048,-4.1083,-4.1105,0,0,0,-4.0463,-4.0477,-4.0497,-4.0515,-4.0573,-4.0675,-4.0694,-4.075,-4.0769,-4.0838,-4.0845,-4.1045,-4.1048,-4.108,-4.11,-4.1156,0,0,0,-4.0441,-4.0528,-4.0497,-4.06,-4.0571,-4.0698,-4.0693,-4.0788,-4.0852,-4.0842,-4.1046,-4.1048,-4.1079,-4.1097,-4.1153,-4.12,-4.1219,0,0,-4.0545,-4.0541,-4.0602,-4.0578,-4.0707,-4.0678,-4.0813,-4.0882,-4.0898,-4.0998,-4.1003,-4.1084,-4.11,-4.1156,-4.1334,-4.1349,0,0,0,-4.0631,-4.0675,-4.0711,-4.0772,-4.0827,-4.0876,-4.0925,-4.0951,-4.1036,-4.0947,-4.1121,-4.1131,-4.1164,-4.1187,-4.12,-4.1228,-4.1059,-4.1059,-4.1059,-4.0762,-4.0779,-4.0882,-4.0915,-4.0975,-4.1026,-4.1075,-4.1119,-4.1119,-4.116,-4.1188,-4.1295,-4.1321,-4.1331,-4.1361,-4.1217,-4.1217,-4.1217,-4.1217,-4.0915,-4.0979,-4.0979,-4.1077,-4.1095,-4.1179,-4.1233,-4.1231,-4.1311,-4.1274,-4.1304,-4.1259,-4.1347,-4.1374,-4.122,-4.122,-4.1219,-4.1219,-4.1219,-4.1001,-4.1034,-4.1065,-4.1155,-4.1224,-4.1256,-4.1334,-4.1349,-4.1363,-4.1393,-4.1425,-4.1424,-4.1424,-4.1408,-4.1408,-4.1408,-4.1409,-4.1409,-4.1409,-4.1076,-4.111,-4.1173,-4.1241,-4.1282,-4.1339,-4.1394,-4.1435,-4.1485,-4.149,-4.149,-4.1485,-4.1353,-4.1318,-4.1415,-4.1414,-4.1413,-4.1413,-4.1412,-4.122,-4.119,-4.1288,-4.133,-4.1411,-4.1479,-4.1498,-4.1582,-4.1619,-4.1657,-4.1648,-4.1548,-4.1544,-4.1534,-4.1505,-4.1644,-4.1644,-4.1644,-4.1644,-4.129,-4.1291,-4.1394,-4.1461,-4.1527,-4.1555,-4.1666,-4.1711,-4.1753,-4.1777,-4.176,-4.1724,-4.1713,-4.1715,-4.1701,-4.1674,-4.1854,-4.1854,-4.1854,-4.138,-4.1388,-4.1478,-4.1518,-4.1584,-4.164,-4.1745,-4.1822,-4.1864,-4.1863,-4.1796,-4.1787,-4.1729,-4.171,-4.1703,-4.1681,-4.1632,0,0]},{"header":{"parameterUnit":"m.s-1","parameterCategory":1,"la1":30.2992,"la2":30.254,"lo1":-89.0895,"lo2":-89.0443,"dy":0.0025,"dx":0.0025,"nx":19,"ny":19,"refTime":"2026-03-07T09:00:00:Z","depth":0,"parameterNumber":3,"parameterNumberName":"V-component_of_WINDS"},"data":[0,0,0,2.6502,2.6504,2.6617,2.6618,2.6749,2.675,0,0,0,0,0,0,0,0,0,0,0,2.6459,2.646,2.6501,2.6504,2.6617,2.6618,2.6749,2.675,0,0,0,0,0,0,0,0,0,0,0,2.6459,2.646,2.6461,2.6504,2.6617,2.6618,2.6748,2.6668,0,0,0,0,0,0,0,0,0,0,2.656,2.6513,2.646,2.6461,2.6505,2.6617,2.6618,2.6664,2.6673,2.6692,0,2.6706,0,2.673,2.6758,2.6758,0,0,0,2.651,2.6505,2.6544,2.6461,2.6506,2.6617,2.6568,2.6669,2.6679,2.6703,2.6708,2.6713,2.6732,2.6759,2.6759,2.685,2.685,0,0,2.6504,2.6475,2.6537,2.655,2.6531,2.6564,2.6571,2.6675,2.6678,2.6709,2.6717,2.6734,2.6759,2.676,2.685,2.685,0,0,0,2.6482,2.647,2.6507,2.6544,2.6565,2.6567,2.6575,2.6674,2.6688,2.6718,2.6736,2.676,2.6762,2.685,2.685,2.6829,0,0,0,2.6478,2.6457,2.6503,2.6487,2.6563,2.6621,2.6571,2.6681,2.6694,2.6735,2.676,2.6763,2.685,2.685,2.683,2.6824,0,0,0,2.6455,2.6455,2.6468,2.6485,2.6533,2.662,2.6641,2.6684,2.6704,2.6758,2.6763,2.6849,2.685,2.683,2.6824,2.6841,0,0,0,2.6421,2.6446,2.6467,2.6502,2.6531,2.6606,2.664,2.6697,2.6741,2.6761,2.685,2.685,2.683,2.6825,2.6841,2.685,2.6851,0,0,2.6436,2.6446,2.647,2.6492,2.6556,2.6591,2.6653,2.672,2.6751,2.6815,2.6818,2.6829,2.6825,2.6841,2.6865,2.6865,0,0,0,2.6464,2.6481,2.6504,2.6545,2.6599,2.6645,2.6706,2.6732,2.6788,2.6778,2.6841,2.6838,2.6849,2.6855,2.6856,2.6868,2.6851,2.6851,2.6851,2.6442,2.6483,2.6525,2.6581,2.6621,2.6686,2.6723,2.6769,2.6796,2.681,2.6829,2.6839,2.6844,2.6845,2.6857,2.6837,2.6837,2.6837,2.6837,2.6468,2.6499,2.6539,2.6594,2.6638,2.6685,2.675,2.6769,2.682,2.6827,2.6839,2.6843,2.6844,2.6857,2.6836,2.6836,2.6836,2.6836,2.6836,2.6458,2.648,2.6513,2.658,2.6628,2.6684,2.6732,2.677,2.6806,2.6817,2.6844,2.6844,2.685,2.6827,2.6827,2.6827,2.6827,2.6827,2.6827,2.6435,2.6473,2.6509,2.6571,2.6605,2.6655,2.6724,2.6758,2.6806,2.683,2.6831,2.6858,2.6837,2.6831,2.6828,2.6828,2.6828,2.6828,2.6828,2.6446,2.6451,2.6507,2.6541,2.662,2.6666,2.6716,2.6784,2.6818,2.6842,2.6868,2.6846,2.6859,2.6859,2.6854,2.6858,2.6858,2.6858,2.6858,2.6438,2.645,2.6518,2.6571,2.6628,2.6679,2.6744,2.68,2.6857,2.6882,2.6887,2.6885,2.6883,2.6897,2.6896,2.6893,2.6906,2.6906,2.6906,2.6449,2.6468,2.6515,2.6573,2.6639,2.6695,2.6758,2.6818,2.6885,2.6909,2.6903,2.6901,2.6897,2.6893,2.6915,2.6913,2.6908,0,0]}]]